  73P/Schwassmann-Wachmann BI
T 2006 June 8.602 TT                                    MPC                     
q   0.94146              (2000.0)            P               Q                  
n   0.183259       Peri.  197.763       -0.031703       +0.982376               
a   3.06968        Node    70.737       -0.891713       +0.055451               
e   0.69330        Incl.   11.252       -0.451490       -0.178500               
P   5.38                                                                        
                                                                                
  73P/Schwassmann-Wachmann BJ
T 2006 June 8.669 TT                                    MPC                     
q   0.93914              (2000.0)            P               Q                  
n   0.183941       Peri.  198.776       -0.028970       +0.982226               
a   3.06209        Node    69.905       -0.889958       +0.059128               
e   0.69330        Incl.   11.389       -0.455121       -0.178144               
P   5.36                                                                        
                                                                                
  73P/Schwassmann-Wachmann BK
T 2006 June 8.884 TT                                    MPC                     
q   0.93931              (2000.0)            P               Q                  
n   0.183891       Peri.  198.698       -0.029167       +0.982238               
a   3.06264        Node    69.970       -0.890094       +0.058859               
e   0.69330        Incl.   11.379       -0.454842       -0.178171               
P   5.36                                                                        
                                                                                
  73P/Schwassmann-Wachmann BL
T 2006 June 8.886 TT                                    MPC                     
q   0.93923              (2000.0)            P               Q                  
n   0.183914       Peri.  198.739       -0.029167       +0.982227               
a   3.06239        Node    69.930       -0.890017       +0.058917               
e   0.69330        Incl.   11.385       -0.454993       -0.178212               
P   5.36                                                                        
                                                                                
  73P/Schwassmann-Wachmann BM
T 2006 June 8.939 TT                                    MPC                     
q   0.93962              (2000.0)            P               Q                  
n   0.183798       Peri.  198.546       -0.029736       +0.982240               
a   3.06367        Node    70.086       -0.890342       +0.058214               
e   0.69330        Incl.   11.364       -0.454321       -0.178371               
P   5.36                                                                        

  73P/Schwassmann-Wachmann BN
T 2006 June 8.203 TT                                    MPC                     
q   0.93905              (2000.0)            P               Q                  
n   0.183967       Peri.  198.815       -0.028898       +0.982208               
a   3.06180        Node    69.871       -0.889879       +0.059272               
e   0.69330        Incl.   11.398       -0.455280       -0.178195               
P   5.36                                                                        
                                                                                
  73P/Schwassmann-Wachmann BO
T 2006 June 8.259 TT                                    MPC                     
q   0.93913              (2000.0)            P               Q                  
n   0.183941       Peri.  198.761       -0.029213       +0.982219               
a   3.06208        Node    69.906       -0.889974       +0.058909               
e   0.69330        Incl.   11.389       -0.455076       -0.178258               
P   5.36                                                                        
                                                                                
  73P/Schwassmann-Wachmann BP
T 2006 June 8.302 TT                                    MPC                     
q   0.93910              (2000.0)            P               Q                  
n   0.183952       Peri.  198.807       -0.028861       +0.982218               
a   3.06196        Node    69.881       -0.889901       +0.059275               
e   0.69330        Incl.   11.395       -0.455240       -0.178140               
P   5.36                                                                        
                                                                                
  73P/Schwassmann-Wachmann BQ
T 2006 June 8.298 TT                                    MPC                     
q   0.93900              (2000.0)            P               Q                  
n   0.183979       Peri.  198.862       -0.028708       +0.982206               
a   3.06166        Node    69.836       -0.889800       +0.059491               
e   0.69330        Incl.   11.404       -0.455447       -0.178137               
P   5.36                                                                        

  73P/Schwassmann-Wachmann BR                                                   
T 2006 June 6.155 TT                                    MPC                     
q   0.93921              (2000.0)            P               Q                  
n   0.183920       Peri.  198.775       -0.028900       +0.982227               
a   3.06232        Node    69.910       -0.889962       +0.059192               
e   0.69330        Incl.   11.389       -0.455119       -0.178117               
P   5.36                                                                        
                                                                                
  73P/Schwassmann-Wachmann BS                                                   
T 2006 June 5.832 TT                                    MPC                     
q   0.93918              (2000.0)            P               Q                  
n   0.183927       Peri.  198.814       -0.028679       +0.982210               
a   3.06224        Node    69.885       -0.889886       +0.059475               
e   0.69330        Incl.   11.399       -0.455281       -0.178119               
P   5.36                                                                        

* Finding Charts

* Magnitudes Graph

	Component C:
        m1 =  9.7 + 5 log d + 16.5 log r  [   ,-76]  (             - 2006 Mar. 22)
        m1 = 11.2 + 5 log d +  6.5 log r  [-76,  0]  (2006 Mar. 22 - 2006 June  6)
        m1 = 11.4 + 5 log d + 15.0 log r  [  0,   ]  (2006 June  6 -             )

	Component B:
        m1 = 11.5 + 5 log d +  18.0 log r          [   ,-68]  (             - 2006 Mar. 31)
        m1 = 28.1 + 5 log d + 600   log r(t + 60)  [-68,-60]  (2006 Mar. 31 - 2006 Apr.  8)
        m1 = 14.3 + 5 log d -  25   log r          [-60,-48]  (2006 Apr.  8 - 2006 Apr. 20)
        m1 = 13.6 + 5 log d +  85   log r(t + 30)  [-48,-30]  (2006 Apr. 20 - 2006 May   8)
        m1 = 11.4 + 5 log d -   8   log r          [-30,  0]  (2006 May   8 - 2006 June  7)
        m1 = 12.7 + 5 log d +  40   log r          [  0, 60]  (2006 June  7 - 2006 Aug.  6)
        m1 = 15.0 + 5 log d +  18.0 log r          [ 60,   ]  (2006 Aug.  6 -             )

	Component G:
        m1 = 16   + 5 log d +   10   log r          [   ,-64]  (             - 2006 Apr.  5)
        m1 = 56   + 5 log d + 1500   log r(t + 59)  [-64,-59]  (2006 Apr.  5 - 2006 Apr. 10)
        m1 = 18.5 + 5 log d +  135   log r(t + 59)  [-59,   ]  (2006 Apr. 10 -             )

	Fainter components:
        m1 = 18.5 + 5 log d +  10 log r          [   ,-76]  (             - 2006 Mar. 24)
        m1 = 19.5 + 5 log d + 100 log r(t + 50)  [-76,   ]  (2006 Mar. 24 -             )

---------------------------------------------------------------------

The orbital elements of components from B to Y are published on M.P.E.C. 2006-G24.
The orbital elements of components P and Q are published on M.P.E.C. 2006-G28.
The orbital elements of components from Z to AM are published on M.P.E.C. 2006-H03.
The orbital elements of components from AN to AP are published on M.P.E.C. 2006-H26.
The orbital elements of components AQ and AR are published on M.P.E.C. 2006-H37.
The orbital elements of components AS and AT are published on M.P.E.C. 2006-H48.
The orbital elements of components from AU to BM are published on M.P.E.C. 2006-H61.
The orbital elements of components from BN to BQ are published on M.P.E.C. 2006-J31.
The orbital elements of components BR and BS are published on M.P.E.C. 2006-K18.
The charts are made with StellaNavigator Ver.2.0 for Windows (AstroArts / ASCII).
The magnitudes graphs are made with Comet for Windows.

---------------------------------------------------------------------

Copyright(C) Seiichi Yoshida (comet@aerith.net). All rights reserved.